Tracking 25934 objects as of 11-Aug-2022
HD Live streaming from Space Station
objects crossing your sky now

PSLV R/B

Track PSLV R/B now!
10-day predictions


NORAD ID: 28050
Int'l Code: 2003-046B
Perigee: 806.7 km
Apogee: 879.6 km
Inclination: 98.9 °
Period: 101.6 minutes
Semi major axis: 7214 km
RCS: 6.3209 m2 (large)
Launch date: October 17, 2003
Source: India (IND)
Launch site: SRIHARIKOTA (SRI)

Note: This is a ROCKET BODY
aabbcc
Your satellite tracking list
Your tracking list is empty




NASA's NSSDC Master Catalog

Two Line Element Set (TLE):
1 28050U 03046B   22222.82934941  .00000020  00000-0  32180-4 0  9998
2 28050  98.8686 168.4616 0050468 314.0910  71.2671 14.16854673972888
Source of the keplerian elements: AFSPC